Location: Fremont
(37.5480°N, 121.9880°W)
Time: 06:52:03
(UTC-07:00)

Daily predictions for brighter satellites

Satellite Brightness Start Highest point End
(mag) Time Altitude Azimuth Time Altitude Azimuth Time Altitude Azimuth
SJ-6B 3.4 20:15:33 10° S 20:19:25 62° W 20:23:25 10° NNW
Cosmos 2322 Rocket 2.4 20:14:53 10° S 20:20:12 47° ESE 20:25:35 10° NE
Milstar 3 3.7 20:13:56 10° WSW 20:22:51 43° S 20:29:12 10° ESE
Cosmos 1486 Rocket 4.0 20:17:41 10° NNW 20:22:56 76° ENE 20:28:11 10° SSE
Cosmos 1400 Rocket 3.4 20:19:30 10° NNW 20:23:21 61° W 20:27:15 10° S
USA 186 2.6 20:21:07 10° SE 20:23:27 26° ENE 20:25:57 10° NNE
Cosmos 1825 3.3 20:23:07 10° NNE 20:26:21 26° ENE 20:29:33 10° SE
Nadezhda 4 Rocket 4.2 20:20:54 10° N 20:27:12 81° W 20:33:31 10° S
Cosmos 2360 Rocket 3.4 20:25:26 10° SSE 20:29:28 21° E 20:33:33 10° NE
Cosmos 1980 Rocket 3.4 20:24:35 10° SW 20:30:03 48° WNW 20:35:34 10° N
GENESIS II 4.4 20:28:23 10° SSW 20:32:19 53° ESE 20:36:17 10° NE
Cosmos 1869 Rocket 3.8 20:30:24 10° N 20:34:53 78° W 20:39:20 10° S
Cosmos 1634 Rocket 4.0 20:30:08 10° S 20:36:23 73° E 20:42:42 10° N
Helios 1A 3.7 20:33:19 10° SE 20:37:12 37° ENE 20:41:07 10° N
Cosmos 1092 Rocket 4.1 20:32:43 10° N 20:39:06 89° ENE 20:45:28 10° S
Cosmos 1315 Rocket 3.0 20:35:35 10° NNW 20:39:40 78° W 20:43:39 10° S
CZ-2D R/B 3.2 20:36:34 10° SSE 20:40:27 82° ENE 20:44:21 10° N
Resurs 1-3 3.6 20:36:08 10° SSE 20:40:31 86° ENE 20:44:56 10° NNW
Cosmos 1933 4.2 20:41:28 10° SSE 20:44:59 30° E 20:48:31 10° NNE
Cosmos 1408 2.8 20:44:14 10° N 20:47:51 50° E 20:51:19 10° SSE
ATLAS 5 CENTAUR R/B 3.5 20:43:22 10° NNW 20:48:33 29° NE 20:53:09 14° ESE
SL-16 R/B 2.2 20:43:44 10° SSW 20:49:23 84° ESE 20:55:06 10° NNE
ATLAS CENTAUR R/B 3.9 20:50:33 10° WNW 20:53:16 25° SW 20:58:49 10° S
Cosmos 1655 Rocket 4.2 20:47:26 10° N 20:53:41 54° E 20:59:51 10° SSE
Cosmos 1503 Rocket 4.0 20:49:33 10° NNW 20:54:49 75° ENE 20:59:50 11° SSE
Spot 2 Rocket 3.9 20:51:13 10° S 20:56:15 64° WSW 21:01:19 10° NNW
Cosmos 2242 Rocket 3.6 20:52:13 10° S 20:56:44 84° E 21:01:14 10° N
Cosmos 1354 Rocket 4.0 20:54:50 10° NNW 21:00:08 84° ENE 21:05:11 11° SSE
Meteor 1-29 2.9 21:00:28 10° NNE 21:03:55 62° E 21:07:20 10° S
Cosmos 1862 3.4 21:01:48 10° N 21:05:47 56° E 21:08:31 19° SSE
Cosmos 220 Rocket 4.3 21:03:43 10° NNW 21:08:09 68° WSW 21:12:20 11° S
H-2A R/B 4.1 21:11:37 10° ENE 21:12:35 11° ENE 21:13:36 10° NE
Cosmos 2279 Rocket 3.9 21:08:50 10° S 21:15:05 86° E 21:21:20 10° N
Envisat 2.9 21:11:46 13° SSE 21:16:18 84° ENE 21:21:24 10° N
Resurs 01 Rocket 3.4 21:12:58 10° SSW 21:16:53 31° W 21:20:52 10° NW
YAOGAN 6 3.1 21:19:14 34° ESE 21:20:05 40° ENE 21:23:29 10° N
Cosmos 1939 Rocket 2.8 21:17:44 23° SSE 21:20:13 77° ENE 21:24:14 10° N
OAO 3 Rocket 3.3 21:22:07 10° W 21:26:57 62° S 21:28:56 34° ESE
Helios 1B rocket 3.4 21:25:02 10° N 21:29:00 49° WNW 21:32:56 10° SSW
Meteor 1-26 Rocket 4.3 21:24:39 16° SSE 21:29:02 56° E 21:34:41 10° NNE
Lacrosse 4 Rocket 2.3 21:25:44 10° NW 21:29:55 47° WSW 21:32:42 20° S
ERBS 4.4 21:28:45 10° WNW 21:31:28 21° WSW 21:33:01 16° SSW
Cosmos 1428 Rocket 4.4 21:25:46 10° N 21:31:53 88° W 21:36:58 16° S
USA 234 3.3 21:28:34 26° ESE 21:32:25 69° NE 21:38:55 10° NW
SEDSat Delta rocket 4.0 21:27:37 10° WSW 21:32:38 46° S 21:34:36 33° SE
Cosmos 2219 Rocket 4.1 21:36:25 13° ENE 21:36:25 13° ENE 21:37:28 10° ENE
Sich 1 Rocket 3.7 21:33:44 10° N 21:38:10 58° E 21:39:16 44° SE
Cosmos 1908 Rocket 3.5 21:36:26 10° N 21:40:45 62° E 21:41:37 49° SE
Meteor 2-10 Rocket 3.7 21:37:09 10° S 21:42:58 88° E 21:48:48 10° N
ERS-1 Rocket 2.9 21:42:05 38° SSE 21:44:00 73° ENE 21:49:01 10° N
CZ-4B DEB 4.3 21:43:21 23° SW 21:44:28 31° W 21:47:13 10° NNW
Atlas Centaur 2 3.1 21:41:26 10° WSW 21:48:07 49° S 21:50:57 35° SE
SeaSat 1 3.4 21:50:41 30° ENE 21:51:26 32° ENE 21:55:47 10° N
Cosmos 1782 Rocket 3.8 21:50:49 10° N 21:54:56 50° ENE 21:54:56 50° ENE
Cosmos 2263 Rocket 2.7 21:52:04 10° NNW 21:57:30 55° WSW 22:00:08 29° S
Cosmos 2237 4.1 21:54:55 18° SSW 21:59:16 74° ESE 22:04:59 10° NNE
SPOT 1/Viking Rocket 4.2 21:59:25 37° ENE 21:59:43 38° ENE 22:04:30 10° N
Okean 2 Rocket 3.7 22:00:13 10° N 22:03:59 43° NE 22:03:59 43° NE
MOS 1-B Rocket 4.0 22:06:45 50° ESE 22:07:54 60° ENE 22:13:27 10° N
COSMOS 2428 2.6 22:07:14 53° SSE 22:08:23 66° ESE 22:14:02 10° NNE
Okean 1-7 3.0 22:09:51 73° NE 22:09:51 73° NE 22:13:57 10° N
Meteor 1-14 Rocket 4.2 22:06:09 10° N 22:11:52 87° W 22:13:22 52° S
Cosmos 2360 Rocket 3.1 22:07:34 10° SW 22:13:02 49° WNW 22:18:32 10° NNE
NOSS 3-1 (C) 4.1 22:15:44 35° ENE 22:15:44 35° ENE 22:19:43 10° NE
Cosmos 1777 Rocket 4.1 22:09:18 10° N 22:14:30 57° ENE 22:14:34 57° ENE
USA 229 DEB 3.9 22:11:49 10° SW 22:18:36 70° NW 22:25:31 10° NNE
USA 229 3.9 22:11:54 10° SW 22:18:42 70° NW 22:25:37 10° NNE
Meteor 1-25 Rocket 4.0 22:14:14 10° N 22:19:49 80° E 22:20:20 72° SE
SPOT 5 2.7 22:20:33 87° ENE 22:20:33 87° ENE 22:25:14 10° NNW
NOAA 11 4.3 22:22:09 54° SSW 22:23:18 70° WSW 22:28:48 10° NNW
MetOp-B 4.2 22:22:45 58° SSW 22:23:40 71° WSW 22:29:01 10° NNW
Cosmos 1844 4.4 22:20:00 10° N 22:25:11 39° ENE 22:25:11 39° ENE
ATLAS 5 CENTAUR R/B 2.9 22:27:34 10° NW 22:33:33 54° WSW 22:34:44 47° SSW
Meteor 1-20 Rocket 4.1 22:28:33 10° N 22:34:09 87° W 22:34:24 82° SSW
Nimbus 7 Rocket 4.4 22:32:25 10° NNE 22:38:22 79° WNW 22:39:40 57° SW
ARGOS 3.2 22:38:15 67° WSW 22:38:30 68° WSW 22:43:52 10° NNW
Meteor 2-6 Rocket 4.2 22:45:14 82° NE 22:45:14 82° NE 22:51:00 10° N
Cosmos 2333 4.5 22:46:59 52° WSW 22:48:10 65° WNW 22:53:55 10° NNE
Cosmos 2333 Rocket 3.1 22:50:21 39° NE 22:50:21 39° NE 22:53:59 10° NNE
Cosmos 2237 Rocket 3.7 22:52:57 25° NE 22:52:57 25° NE 22:55:21 10° NE
H-2A R/B 2.4 22:52:15 59° NNW 22:52:15 59° NNW 22:56:17 10° NNW
Cosmos 2278 Rocket 3.2 22:51:11 10° N 22:55:31 36° NE 22:55:31 36° NE
Cosmos 1844 Rocket 2.9 22:54:24 10° NNW 22:59:11 65° NW 22:59:11 65° NW
Milstar 3 4.4 23:00:23 10° WSW 23:03:06 18° SW 23:03:06 18° SW
H-2A R/B 3.9 23:11:44 28° NNW 23:11:44 28° NNW 23:13:51 10° NNW
NOSS 0 Rocket 4.4 23:14:35 52° NNE 23:14:35 52° NNE 23:19:09 10° NNE
Terra 3.2 23:15:18 36° NNW 23:15:18 36° NNW 23:18:08 10° NNW
USA 234 4.4 23:15:55 30° WSW 23:15:55 30° WSW 23:21:17 10° WNW
Cosmos 2219 Rocket 2.8 23:18:04 52° NNW 23:18:04 52° NNW 23:22:51 10° NNE
Cosmos 1553 Rocket 4.2 23:21:52 66° NW 23:21:52 66° NW 23:27:26 10° N
CZ-4C R/B 3.2 23:15:06 10° NNW 23:22:12 57° NE 23:22:16 57° NE
Meteor 1-27 Rocket 4.4 23:24:39 50° NNW 23:24:39 50° NNW 23:28:53 10° N
SeaSat 1 4.2 23:30:28 25° WNW 23:30:28 25° WNW 23:33:14 10° NW
Atlas Centaur 2 4.1 23:30:07 10° W 23:33:36 28° WSW 23:33:36 28° WSW
